CW8809 Weather Reports


Display with metric or nautical units.
time (UTC)temp
F
wind
direction
speed
MPH
gust
MPH
rain 1hr
in
rain 24hr
in
rain mn
in
humidity
%
barometer
mb
20181218124049 64 135 4.0 8.0 0.00 0.00 0.00 77 1017.3
20181218123047 64 90 8.0 8.0 0.00 0.00 0.00 77 1017.3
20181218122043 64 135 0.0 1.0 0.00 0.00 0.00 77 1017.3
20181218121041 64 112 0.0 8.0 0.00 0.00 0.00 77 1017.2
20181218120039 64 90 5.0 7.0 0.00 0.00 0.00 77 1017.2
20181218115037 64 112 2.0 3.0 0.00 0.00 0.00 76 1017.5
20181218114035 64 67 3.0 4.0 0.00 0.00 0.00 76 1017.5
20181218113033 64 67 0.0 4.0 0.00 0.00 0.00 76 1017.5
20181218112030 64 90 4.0 4.0 0.00 0.00 0.00 75 1017.4
20181218111028 64 89 4.0 4.0 0.00 0.00 0.00 76 1017.4
20181218110027 64 112 5.0 5.0 0.00 0.00 0.00 76 1017.3
20181218105024 64 135 5.0 5.0 0.00 0.00 0.00 76 1017.3
20181218104023 65 67 0.0 8.0 0.00 0.00 0.00 76 1016.9
20181218103021 65 54 2.0 5.0 0.00 0.00 0.00 75 1016.6
20181218102019 65 135 3.0 7.0 0.00 0.00 0.00 75 1016.2
20181218101017 65 112 1.0 5.0 0.00 0.00 0.00 75 1016.1
20181218100015 65 129 3.0 4.0 0.00 0.00 0.00 75 1016.1
20181218095013 66 45 1.0 8.0 0.00 0.00 0.00 75 1015.7
20181218094011 66 67 0.0 5.0 0.00 0.00 0.00 75 1016.0
20181218093009 66 45 3.0 11.0 0.00 0.00 0.00 75 1016.0
20181218092007 66 146 7.0 12.0 0.00 0.00 0.00 75 1016.0
20181218091004 66 118 3.0 8.0 0.00 0.00 0.00 75 1015.7
20181218090002 66 67 3.0 8.0 0.00 0.00 0.00 75 1015.0
20181218085000 67 131 6.0 12.0 0.00 0.00 0.00 74 1015.0
20181218083958 67 112 6.0 10.0 0.00 0.00 0.00 73 1015.0
20181218082957 68 118 10.0 23.0 0.00 0.00 0.00 72 1015.3
20181218081955 69 22 7.0 18.0 0.00 0.00 0.00 71 1015.3
20181218080953 69 49 1.0 9.0 0.00 0.00 0.00 70 1015.7
20181218075951 70 33 6.0 16.0 0.00 0.00 0.00 69 1015.0
20181218074949 71 112 9.0 17.0 0.00 0.00 0.00 68 1014.4
20181218073947 72 133 5.0 6.0 0.00 0.00 0.00 66 1013.8
20181218072945 73 63 6.0 18.0 0.00 0.00 0.00 65 1013.5
20181218071942 74 67 7.0 24.0 0.00 0.00 0.00 63 1013.5
20181218070940 76 67 11.0 11.0 0.00 0.00 0.00 61 1013.3
20181218065938 77 80 8.0 11.0 0.00 0.00 0.00 58 1013.0
20181218064937 78 61 9.0 13.0 0.00 0.00 0.00 55 1013.1
20181218063934 81 90 3.0 12.0 0.00 0.00 0.00 52 1013.0
20181218062932 84 125 8.0 8.0 0.00 0.00 0.00 49 1013.2
20181218061930 87 35 2.0 7.0 0.00 0.00 0.00 44 1013.7
20181218060928 87 321 9.0 12.0 0.00 0.00 0.00 29 1013.3
20181218055926 88 0 0.0 3.0 0.00 0.00 0.00 31 1013.3
20181218054924 88 22 1.0 12.0 0.00 0.00 0.00 32 1013.4
20181218053922 88 335 6.0 12.0 0.00 0.00 0.00 31 1013.4
20181218052920 88 325 3.0 5.0 0.00 0.00 0.00 32 1013.4
20181218051918 88 337 1.0 9.0 0.00 0.00 0.00 32 1013.4
20181218050916 88 0 2.0 2.0 0.00 0.00 0.00 31 1013.4
20181218045914 89 0 0.0 1.0 0.00 0.00 0.00 31 1013.8
20181218044912 88 45 0.0 9.0 0.00 0.00 0.00 32 1013.7
20181218043910 88 307 3.0 3.0 0.00 0.00 0.00 35 1013.8
20181218042908 87 356 1.0 8.0 0.00 0.00 0.00 33 1014.0
20181218041906 87 319 2.0 8.0 0.00 0.00 0.00 35 1014.1
20181218040905 88 337 8.0 8.0 0.00 0.00 0.00 33 1014.4
20181218035903 87 0 3.0 3.0 0.00 0.00 0.00 36 1014.7
20181218034901 87 22 3.0 8.0 0.00 0.00 0.00 35 1015.1
20181218033859 86 337 3.0 3.0 0.00 0.00 0.00 37 1015.0
20181218032857 87 295 4.0 5.0 0.00 0.00 0.00 36 1014.8
20181218031855 86 337 1.0 7.0 0.00 0.00 0.00 36 1014.7
20181218030853 86 0 1.0 10.0 0.00 0.00 0.00 38 1014.4
20181218025851 86 337 2.0 13.0 0.00 0.00 0.00 38 1014.4
20181218024849 85 251 4.0 6.0 0.00 0.00 0.00 40 1014.0
20181218023848 85 337 5.0 9.0 0.00 0.00 0.00 37 1014.0
20181218022846 83 332 3.0 11.0 0.00 0.00 0.00 40 1013.6
20181218021844 83 270 1.0 9.0 0.00 0.00 0.00 44 1013.6
20181218020842 83 292 1.0 5.0 0.00 0.00 0.00 43 1013.9
20181218015840 83 232 4.0 5.0 0.00 0.00 0.00 45 1014.3
20181218014837 81 45 0.0 11.0 0.00 0.00 0.00 46 1014.5
20181218013835 81 321 2.0 3.0 0.00 0.00 0.00 45 1014.8
20181218012834 81 318 7.0 9.0 0.00 0.00 0.00 46 1014.9
20181218011832 81 176 5.0 6.0 0.00 0.00 0.00 51 1014.9
20181218010830 78 202 5.0 5.0 0.00 0.00 0.00 53 1015.1
20181218005828 78 0 3.0 3.0 0.00 0.00 0.00 53 1015.4
20181218004823 78 94 3.0 5.0 0.00 0.00 0.00 54 1015.4
20181218003821 77 337 0.0 3.0 0.00 0.00 0.00 53 1015.7
20181218002819 76 292 2.0 9.0 0.00 0.00 0.00 54 1015.6
20181218001817 76 180 1.0 1.0 0.00 0.00 0.00 55 1015.7
20181218000815 75 22 1.0 4.0 0.00 0.00 0.00 55 1016.0
20181217235813 74 224 3.0 8.0 0.00 0.00 0.00 59 1015.9
20181217234811 74 121 6.0 8.0 0.00 0.00 0.00 58 1015.9
20181217233809 73 337 0.0 3.0 0.00 0.00 0.00 57 1016.2
20181217232807 73 135 1.0 2.0 0.00 0.00 0.00 59 1015.9
20181217231805 72 45 0.0 2.0 0.00 0.00 0.00 60 1016.2
20181217230803 71 157 2.0 3.0 0.00 0.00 0.00 61 1016.2
20181217225801 70 112 3.0 5.0 0.00 0.00 0.00 63 1016.2
20181217224800 69 112 0.0 6.0 0.00 0.00 0.00 64 1016.2
20181217223757 69 90 6.0 9.0 0.00 0.00 0.00 67 1016.2
20181217222755 68 157 0.0 3.0 0.00 0.00 0.00 68 1016.5
20181217221753 67 61 2.0 6.0 0.00 0.00 0.00 69 1016.5
20181217220751 67 135 6.0 6.0 0.00 0.00 0.00 70 1016.5
20181217215750 66 121 1.0 2.0 0.00 0.00 0.00 70 1016.8
20181217214748 65 82 3.0 5.0 0.00 0.00 0.00 72 1016.8
20181217213746 65 24 2.0 13.0 0.00 0.00 0.00 72 1016.8
20181217212743 65 119 2.0 3.0 0.00 0.00 0.00 75 1016.9
20181217211741 64 90 1.0 4.0 0.00 0.00 0.00 75 1016.9
20181217210739 64 112 4.0 4.0 0.00 0.00 0.00 76 1016.6
20181217205737 63 67 0.0 0.0 0.00 0.00 0.00 78 1016.6
20181217204736 63 112 0.0 0.0 0.00 0.00 0.00 79 1016.6
20181217203733 62 135 0.0 0.0 0.00 0.00 0.00 81 1016.6
20181217202731 61 112 0.0 0.0 0.00 0.00 0.00 82 1016.2
20181217201729 61 90 0.0 0.0 0.00 0.00 0.00 84 1016.2
20181217200728 60 67 0.0 0.0 0.00 0.00 0.00 85 1016.2
20181217195726 60 112 0.0 0.0 0.00 0.00 0.00 85 1015.8
20181217194724 59 112 0.0 0.0 0.00 0.00 0.00 86 1015.8
20181217193722 59 112 0.0 0.0 0.00 0.00 0.00 86 1015.8
20181217192720 58 67 0.0 0.0 0.00 0.00 0.00 86 1015.5
20181217191718 58 112 0.0 0.0 0.00 0.00 0.00 86 1015.5
20181217190716 58 112 0.0 0.0 0.00 0.00 0.00 86 1015.5
20181217185714 58 67 0.0 0.0 0.00 0.00 0.00 86 1015.2
20181217184712 58 112 0.0 0.0 0.00 0.00 0.00 86 1015.2
20181217183710 59 112 0.0 0.0 0.00 0.00 0.00 85 1015.0
20181217182708 59 67 0.0 0.0 0.00 0.00 0.00 85 1015.4
20181217181706 59 112 0.0 0.0 0.00 0.00 0.00 85 1015.4
20181217180704 59 90 0.0 0.0 0.00 0.00 0.00 85 1015.1
20181217175702 59 112 0.0 0.0 0.00 0.00 0.00 85 1015.1
20181217174700 60 112 0.0 0.0 0.00 0.00 0.00 85 1014.8
20181217173658 60 112 0.0 0.0 0.00 0.00 0.00 85 1015.1
20181217172656 60 112 0.0 0.0 0.00 0.00 0.00 84 1014.8
20181217171653 60 112 0.0 0.0 0.00 0.00 0.00 84 1014.8
20181217170651 60 90 0.0 0.0 0.00 0.00 0.00 84 1014.8
20181217165649 60 157 0.0 0.0 0.00 0.00 0.00 84 1014.5
20181217164647 60 90 0.0 0.0 0.00 0.00 0.00 83 1014.5
20181217163645 60 90 0.0 0.0 0.00 0.00 0.00 83 1014.4
20181217162643 60 112 0.0 0.0 0.00 0.00 0.00 83 1014.5
20181217161641 60 112 0.0 0.0 0.00 0.00 0.00 83 1014.5
20181217160640 60 67 0.0 0.0 0.00 0.00 0.00 83 1014.5
20181217155638 60 112 0.0 0.0 0.00 0.00 0.00 83 1014.5
20181217154636 60 112 0.0 0.0 0.00 0.00 0.00 82 1014.4
20181217153633 60 112 0.0 0.0 0.00 0.00 0.00 82 1014.5
20181217152631 60 112 0.0 0.0 0.00 0.00 0.00 82 1014.5
20181217151629 60 112 0.0 0.0 0.00 0.00 0.00 83 1014.5
20181217150627 61 135 0.0 0.0 0.00 0.00 0.00 82 1014.8
20181217145625 61 157 0.0 2.0 0.00 0.00 0.00 82 1014.8
20181217144623 61 112 0.0 1.0 0.00 0.00 0.00 82 1014.8
20181217143620 61 135 0.0 5.0 0.00 0.00 0.00 82 1014.8
20181217142618 62 45 5.0 5.0 0.00 0.00 0.00 82 1014.9
20181217141616 62 112 0.0 0.0 0.00 0.00 0.00 81 1015.2
20181217140615 62 112 0.0 3.0 0.00 0.00 0.00 81 1015.2
20181217135612 62 112 3.0 3.0 0.00 0.00 0.00 81 1015.0
20181217134610 62 112 1.0 6.0 0.00 0.00 0.00 81 1015.0
20181217133608 62 112 0.0 0.0 0.00 0.00 0.00 80 1015.1
20181217132606 63 135 0.0 0.0 0.00 0.00 0.00 79 1015.0
20181217131604 63 90 0.0 0.0 0.00 0.00 0.00 79 1015.0
20181217130601 63 135 2.0 7.0 0.00 0.00 0.00 79 1015.0
20181217125600 63 112 1.0 3.0 0.00 0.00 0.00 79 1015.0
20181217124557 63 157 3.0 5.0 0.00 0.00 0.00 79 1014.9